This is the latest recevied weather packets stored in our database for station/object K6POO-1. If no packets are shown the sender has not sent any weather packets the latest 10 day(s).
| Time | Temp. | Humidity | Pressure | Rain* | Wind** | Luminosity | Snow |
|---|---|---|---|---|---|---|---|
| 1777403716 | 17.22° C | 65% | 1020.6 hPa | 0 mm | - | 958 W/m² | - |
| 1777403415 | 17.22° C | 65% | 1020.6 hPa | 0 mm | - | 955 W/m² | - |
| 1777403109 | 17.22° C | 64% | 1020.8 hPa | 0 mm | - | 952 W/m² | - |
| 1777402805 | 17.22° C | 65% | 1020.7 hPa | 0 mm | - | 952 W/m² | - |
| 1777402502 | 16.67° C | 66% | 1020.8 hPa | 0 mm | - | 949 W/m² | - |
| 1777402200 | 17.22° C | 66% | 1020.8 hPa | 0 mm | - | 942 W/m² | - |
| 1777401900 | 17.22° C | 65% | 1020.8 hPa | 0 mm | - | 942 W/m² | - |
| 1777401599 | 16.67° C | 66% | 1020.7 hPa | 0 mm | - | 935 W/m² | - |
| 1777401296 | 17.22° C | 64% | 1020.9 hPa | 0 mm | - | 927 W/m² | - |
| 1777400991 | 17.22° C | 63% | 1020.9 hPa | 0 mm | - | 922 W/m² | - |
| 1777400687 | 17.22° C | 62% | 1020.8 hPa | 0 mm | - | 910 W/m² | - |
| 1777400385 | 17.22° C | 62% | 1020.9 hPa | 0 mm | - | 900 W/m² | - |
| 1777400080 | 17.22° C | 61% | 1020.8 hPa | 0 mm | - | 897 W/m² | - |
| 1777399778 | 17.22° C | 62% | 1020.8 hPa | 0 mm | - | 891 W/m² | - |
| 1777399474 | 17.22° C | 60% | 1021 hPa | 0 mm | - | 880 W/m² | - |
| 1777399172 | 16.67° C | 63% | 1020.9 hPa | 0 mm | - | 871 W/m² | - |
| 1777398869 | 16.67° C | 63% | 1020.9 hPa | 0 mm | - | 855 W/m² | - |
| 1777398566 | 16.67° C | 64% | 1020.8 hPa | 0 mm | - | 847 W/m² | - |
| 1777398262 | 16.67° C | 64% | 1020.9 hPa | 0 mm | - | 834 W/m² | - |
| 1777397960 | 16.11° C | 65% | 1020.8 hPa | 0 mm | - | 828 W/m² | - |
| 1777397655 | 16.11° C | 65% | 1020.9 hPa | 0 mm | - | 815 W/m² | - |
| 1777397352 | 16.11° C | 66% | 1020.8 hPa | 0 mm | - | 801 W/m² | - |
| 1777397049 | 15.56° C | 68% | 1020.8 hPa | 0 mm | - | 777 W/m² | - |
| 1777396745 | 15.56° C | 67% | 1020.7 hPa | 0 mm | - | 762 W/m² | - |
| 1777396442 | 15.56° C | 68% | 1020.9 hPa | 0 mm | - | 763 W/m² | - |
* Rain latest hour (hover to see other rain measurements)
** Current wind speed in m/s (hover to see current wind gust speed)